SCP
0 0 0 0 0 0 0 0 0 0 0 0 0 0 0 0 0 0 0 0 0 0 0 0 0 0 0 0 0 0 0 0 0 0 0 0 0 0 0 0 0 0 0 0
0 0 0 0 0 0 0 0 0 0 0 0 0 0 0 0 0 0 0 0 0 0 0 0 0 0 0 0 0 0 0 0 0 0 0 0 0 0 0 0 0 0 0 0
0 0 0 0 0 0 0 0 0 0 0 0 0 0 0 0 0 0 0 0 0 0 0 0 0 0 0 0 0 0 0 0 0 0 0 0 0 0 0 0 0 0 0 0
0 0 0 0 0 0 0 0 0 0 0 0 0 0 0 0 0 0 0 0 0 0 0 0 0 0 0 0 0 0 0 0 0 0 0 0 0 0 0 0 0 0 0 0
0 0 0 0 0 0 0 0 0 0 0 0 0 0 0 0 0 0 0 0 0 0 0 0 0 0 0 0 0 0 0 0 0 0 0 0 0 0 0 0 0 0 0 0
0 0 0 0 0 0 0 0 0 0 0 0 0 0 0 0 0 0 0 0 0 0 0 0 0 0 0 0 0 0 0 0 0 0 0 0 0 0 0 0 0 0 0 0
0 0 0 0 0 0 0 0 0 0 0 0 0 0 0 0 0 0 0 0 0 0 0 0 0 0 0 0 0 0 0 0 0 0 0 0 0 0 0 0 0 0 0 0
0 0 0 0 0 0 0 0 0 0 0 0 0 0 0 0 0 0 0 0 0 0 0 0 0 0 0 0 0 0 0 0 0 0 0 0 0 0 0 0 0 0 0 0
0 0 0 0 0 0 0 0 0 0 0 0 0 0 0 0 0 0 0 0 0 0 0 0 0 0 0 0 0 0 0 0 0 0 0 0 0 0 0 0 0 0 0 0
0 0 0 0 0 0 0 0 0 0 0 0 0 0 0 0 0 0 0 0 0 0 0 0 0 0 0 0 0 0 0 0 0 0 0 0 0 0 0 0 0 0 0 0
0 0 0 0 0 0 0 0 0 0 0 0 0 0 0 0 0 0 0 0 0 0 0 0 0 0 0 0 0 0 0 0 0 0 0 0 0 0 0 0 0 0 0 0
0 0 0 0 0 0 0 0 0 0 0 0 0 0 0 0 0 0 0 0 0 0 0 0 0 0 0 0 0 0 0 0 0 0 0 0 0 0 0 0 0 0 0 0
0 0 0 0 0 0 0 0 0 0 0 0 0 0 0 0 0 0 0 0 0 0 0 0 0 0 0 0 0 0 0 0 0 0 0 0 0 0 0 0 0 0 0 0
0 0 0 0 0 0 0 0 0 0 0 0 0 0 0 0 0 0 0 0 0 0 0 0 0 0 0 0 0 0 0 0 0 0 0 0 0 0 0 0 0 0 0 0
0 0 0 0 0 0 0 0 0 0 0 0 0 0 0 0 0 0 0 0 0 0 0 0 0 0 0 0 0 0 0 0 0 0 0 0 0 0 0 0 0 0 0 0
0 0 0 0 0 0 0 0 0 0 0 0 0 0 0 0 0 0 0 0 0 0 0 0 0 0 0 0 0 0 0 0 0 0 0 0 0 0 0 0 0 0 0 0
0 0 0 0 0 0 0 0 0 0 0 0 0 0 0 0 0 0 0 0 0 0 0 0 0 0 0 0 0 0 0 0 0 0 0 0 0 0 0 0 0 0 0 0
0 0 0 0 0 0 0 0 0 0 0 0 0 0 0 0 0 0 0 0 0 0 0 0 0 0 0 0 0 0 0 0 0 0 0 0 0 0 0 0 0 0 0 0
0 0 0 0 0 0 0 0 0 0 0 0 0 0 0 0 0 0 0 0 0 0 0 0 0 0 0 0 0 0 0 0 0 0 0 0 0 0 0 0 0 0 0 0
0 0 0 0 0 0 0 0 0 0 0 0 0 0 0 0 0 0 0 0 0 0 0 0 0 0 0 0 0 0 0 0 0 0 0 0 0 0 0 0 0 0 0 0
0 0 0 0 0 0 0 0 0 0 0 0 0 0 0 0 0 0 0 0 0 0 0 0 0 0 0 0 0 0 0 0 0 0 0 0 0 0 0 0 0 0 0 0
0 0 0 0 0 0 0 0 0 0 0 0 0 0 0 0 0 0 0 0 0 0 0 0 0 0 0 0 0 0 0 0 0 0 0 0 0 0 0 0 0 0 0 0
0 0 0 0 0 0 0 0 0 0 0 0 0 0 0 0 0 0 0 0 0 0 0 0 0 0 0 0 0 0 0 0 0 0 0 0 0 0 0 0 0 0 0 0
0 0 0 0 0 0 0 0 0 0 0 0 0 0 0 0 0 0 0 0 0 0 0 0 0 0 0 0 0 0 0 0 0 0 0 0 0 0 0 0 0 0 0 0
0 0 0 0 0 0 0 0 0 0 0 0 0 0 0 0 0 0 0 0 0 0 0 0 0 0 0 0 0 0 0 0 0 0 0 0 0 0 0 0 0 0 0 0
0 0 0 0 0 0 0 0 0 0 0 0 0 0 0 0 0 0 0 0 0 0 0 0 0 0 0 0 0 0 0 0 0 0 0 0 0 0 0 0 0 0 0 0
0 0 0 0 0 0 0 0 0 0 0 0 0 0 0 0 0 0 0 0 0 0 0 0 0 0 0 0 0 0 0 0 0 0 0 0 0 0 0 0 0 0 0 0
Wind_Speed
2 2 5 6 8 11 11 9 8 7 7 8 8 9 9 8 7 7 7 7 7 7 5 5 4 4 3 3 3 3 4 4 4 4 5 5 6 6 6 7 8 7 7 8
1 1 2 4 7 11 12 10 9 6 7 7 6 5 6 7 8 9 8 8 8 7 7 6 5 4 4 3 3 3 4 4 4 4 5 5 5 6 6 7 7 7 8 8
2 1 2 7 11 13 9 8 10 13 10 3 5 8 9 9 9 9 9 8 9 8 7 6 6 5 5 4 4 4 4 4 4 4 5 5 5 6 6 6 6 7 7 7
2 1 7 9 4 7 9 10 9 7 6 7 8 7 6 6 9 8 8 8 8 7 7 6 5 5 5 4 4 4 4 4 4 4 4 4 5 5 5 5 5 5 6 6
3 3 8 8 4 5 7 8 10 11 8 6 4 3 1 3 5 7 7 7 7 7 7 6 6 6 6 5 5 4 4 4 4 4 4 4 4 4 4 4 4 4 4 5
3 3 6 5 2 2 3 6 5 10 9 7 8 5 5 4 4 5 5 6 7 7 6 7 6 6 6 6 5 5 4 4 4 4 4 4 4 3 3 3 3 3 3 3
3 4 8 7 2 3 3 6 4 4 7 8 8 5 3 6 5 5 5 6 7 7 7 7 7 7 7 6 5 5 5 4 4 4 4 4 3 2 3 3 3 2 2 1
5 5 9 3 4 5 6 2 1 2 4 5 4 4 5 5 5 6 6 6 7 7 6 6 7 8 7 6 6 6 5 5 4 4 4 3 3 3 2 2 2 1 1 0
8 9 6 4 6 4 3 2 1 2 3 5 5 4 4 4 5 6 6 6 6 7 7 6 7 8 9 7 7 7 6 5 5 4 3 4 4 3 2 2 2 2 2 1
4 6 5 4 3 2 3 3 2 3 3 4 4 4 4 4 5 6 7 7 7 8 8 8 8 8 8 8 8 7 7 6 5 5 4 3 3 3 3 3 3 2 3 2
5 5 3 3 4 3 2 3 3 3 2 3 3 3 4 4 5 6 6 7 8 9 9 9 9 9 8 9 9 8 7 6 5 5 5 4 3 3 4 3 5 4 3 3
5 5 4 5 3 3 3 3 3 3 2 1 1 2 2 3 4 5 6 7 8 9 9 9 9 9 9 10 10 9 7 6 5 5 4 4 3 2 5 5 5 6 7 5
4 3 2 1 0 2 3 3 2 3 2 1 0 1 1 2 3 4 5 6 9 9 9 9 9 10 10 10 11 10 8 7 5 5 5 5 4 4 3 3 4 5 6 6
2 0 1 2 1 2 3 3 3 3 2 2 1 1 1 2 2 3 5 6 6 7 8 8 9 10 10 10 11 10 9 9 8 6 5 5 5 5 4 3 3 3 4 7
3 1 2 1 2 3 3 3 3 2 2 2 2 2 2 3 3 4 4 4 4 5 6 7 9 9 8 10 10 10 8 6 6 5 5 5 5 5 4 4 4 3 2 3
1 2 3 3 3 2 2 2 2 1 1 2 3 3 4 4 4 4 4 3 4 5 6 7 8 7 8 9 9 8 7 11 9 6 5 5 5 5 5 4 4 4 4 3
1 1 2 1 2 2 2 2 1 1 1 2 3 4 5 4 4 4 4 3 4 5 5 5 6 5 7 8 9 7 6 8 12 7 6 6 5 5 5 5 4 4 4 5
1 1 1 1 2 2 2 2 2 2 2 3 4 4 4 3 4 5 4 3 2 2 3 3 3 4 6 7 7 5 6 6 6 6 6 5 5 5 5 5 5 5 4 4
4 4 4 4 3 3 2 1 2 2 3 3 4 4 3 4 4 4 4 2 2 3 3 2 4 4 5 7 7 5 6 6 6 5 5 7 6 5 5 5 5 5 4 4
4 4 4 4 4 3 2 2 2 3 3 4 3 3 4 4 4 4 3 3 2 3 2 2 3 3 4 6 8 5 6 7 6 6 5 5 5 5 5 5 5 5 5 5
3 3 3 3 3 3 3 3 3 3 4 4 3 4 4 5 4 4 3 3 3 3 3 3 2 2 3 5 8 5 6 6 6 6 6 6 6 5 5 6 5 5 5 5
2 2 2 2 2 2 2 2 3 3 3 3 3 4 4 4 5 4 2 2 3 5 3 2 2 3 4 6 4 5 6 6 6 5 5 6 6 6 6 6 6 5 5 4
2 1 2 2 2 2 2 2 2 3 3 3 3 4 4 4 3 3 3 3 4 6 4 2 4 6 7 4 4 5 6 6 6 6 6 6 6 6 5 6 5 5 5 5
3 3 3 2 2 2 2 2 3 2 3 3 3 3 3 3 3 2 3 7 9 8 4 5 7 7 6 3 4 4 5 5 5 5 5 5 5 5 5 5 5 5 5 6
4 4 3 3 3 3 3 3 3 3 3 3 3 3 3 2 3 4 4 5 8 7 4 5 7 7 3 2 4 4 4 5 5 5 5 5 5 5 5 5 5 5 5 5
4 4 4 5 4 3 3 2 2 2 2 3 3 3 3 3 3 3 3 4 6 7 4 3 3 4 2 2 3 4 4 5 6 5 5 5 5 5 5 5 6 5 5 5
4 4 4 4 4 4 3 3 3 3 3 3 3 3 3 3 3 3 4 4 4 4 3 3 3 2 2 2 3 3 4 4 4 4 4 5 5 5 5 6 5 5 4 5
Wind_Direction
224 191 161 192 198 194 203 204 201 222 220 226 209 191 184 180 175 174 178 179 177 172 166 156 146 135 122 103 83 83 82 76 70 64 59 56 52 50 49 49 50 46 47 44
315 237 201 236 223 210 215 215 222 237 247 238 213 188 182 182 180 186 191 189 181 172 168 167 162 152 135 117 102 97 91 83 77 73 67 63 61 58 58 54 51 50 48 48
254 297 15 265 225 210 210 208 200 222 231 206 184 191 192 191 192 195 194 187 180 176 172 169 166 153 144 133 120 109 102 92 84 84 78 70 70 67 62 60 58 54 50 49
155 102 239 245 236 202 216 229 211 218 212 200 204 202 198 191 191 198 190 181 175 166 161 158 151 143 138 132 127 122 113 104 102 100 93 85 80 75 67 63 61 57 52 47
160 228 274 284 249 183 194 250 220 216 214 203 181 125 252 220 195 192 180 167 161 157 152 151 151 148 140 138 137 134 128 121 117 114 109 102 94 89 82 78 71 63 56 49
180 226 253 265 289 171 136 270 247 205 200 182 152 176 233 194 156 147 140 141 144 143 141 152 159 151 148 151 151 150 144 135 128 125 124 121 114 105 97 95 89 82 65 47
198 242 267 260 255 110 170 257 303 195 180 169 180 195 180 143 137 138 137 141 144 148 156 165 161 156 158 161 166 157 148 143 139 139 138 135 129 123 124 116 104 93 79 28
184 218 255 252 149 185 222 269 25 99 133 141 144 124 130 144 147 152 151 152 156 160 167 168 166 164 168 177 170 157 156 157 157 159 159 147 144 143 143 141 133 136 130 319
195 217 240 220 206 225 184 163 137 114 120 127 129 144 156 166 170 174 174 173 170 171 172 176 178 175 180 182 170 165 164 169 170 168 163 157 163 166 163 167 173 195 203 229
240 259 254 244 231 225 187 173 155 138 135 139 149 163 176 183 186 187 187 186 179 178 186 192 190 188 185 176 174 173 176 179 177 172 169 166 167 169 169 180 188 198 207 220
245 269 286 261 221 209 175 132 124 115 128 147 157 174 187 197 199 198 197 192 188 193 200 199 191 193 186 178 176 181 183 184 182 180 174 174 178 189 187 203 195 193 203 203
228 233 216 245 243 185 161 159 148 137 120 87 134 202 210 219 216 208 202 194 197 202 205 200 195 197 190 182 180 181 186 188 185 180 179 177 176 198 222 212 214 206 200 200
238 258 222 220 54 130 145 142 128 126 131 124 349 272 242 237 231 222 214 205 207 208 207 200 197 199 193 186 184 187 190 187 183 183 183 183 184 188 205 238 242 234 230 233
302 80 165 203 177 117 119 114 102 85 70 57 12 333 300 272 264 246 236 226 217 209 205 200 201 203 192 186 187 192 190 190 188 189 187 187 191 194 194 201 224 255 256 253
311 281 202 153 112 99 99 99 91 69 36 18 9 349 327 298 279 268 263 249 221 211 209 203 207 206 186 185 188 191 189 188 187 185 185 188 188 189 195 204 213 227 243 266
316 67 97 114 119 104 98 101 107 63 1 343 337 325 311 294 284 279 275 249 219 223 218 211 215 204 182 184 186 189 193 193 183 182 183 185 186 190 197 204 212 220 229 234
179 172 148 165 151 113 97 91 95 36 349 334 322 314 310 306 300 294 288 273 247 241 228 218 219 194 182 186 187 188 186 190 188 185 189 189 190 195 198 202 211 221 228 233
19 56 101 136 142 120 91 65 43 13 344 323 322 322 320 312 300 297 295 294 287 279 260 240 215 188 187 188 188 184 182 184 186 190 189 191 194 194 195 204 214 224 231 242
38 56 67 72 78 91 81 47 6 348 339 332 327 321 319 316 312 308 309 301 280 276 279 258 222 192 192 195 186 182 183 185 187 189 185 200 202 196 200 208 216 220 225 230
39 44 54 57 53 57 51 23 6 358 351 344 338 333 330 326 320 314 310 290 273 274 280 259 223 207 200 198 193 188 189 191 193 190 188 195 198 202 207 213 217 222 226 230
30 35 40 45 42 37 30 15 2 352 349 351 348 336 326 322 324 321 317 305 310 313 302 277 243 219 201 202 199 191 191 192 195 193 193 198 203 207 212 216 219 224 227 231
1 13 12 9 8 6 5 359 349 340 343 343 338 331 327 328 329 323 303 292 307 317 314 276 256 239 228 213 197 193 194 196 197 194 195 198 202 210 217 218 221 225 227 229
302 304 305 314 314 309 320 335 332 324 323 324 324 324 320 315 314 316 315 317 314 313 312 277 274 264 249 218 195 196 197 200 200 199 199 201 206 213 217 219 220 223 227 231
265 266 271 285 295 287 289 297 307 308 306 305 309 314 315 315 312 298 292 313 321 319 307 294 291 276 257 207 192 194 198 203 204 203 202 204 209 213 216 218 222 225 228 233
259 258 254 254 256 257 263 281 294 298 303 301 306 310 310 294 288 300 306 309 320 325 312 306 303 293 267 205 196 199 202 207 208 205 206 206 210 213 217 219 222 226 229 233
250 251 248 243 243 247 249 252 262 274 283 292 297 295 300 302 300 303 306 311 315 322 320 305 301 296 270 222 208 208 210 220 226 218 209 209 214 215 218 222 225 226 230 233
253 251 252 256 249 237 233 234 245 258 259 265 279 286 295 303 306 310 312 312 315 315 311 308 306 299 280 245 225 219 217 217 217 216 212 213 214 217 220 222 224 226 228 233